Torna al catalogo

SL-3 R/B

AttivoPO
NORAD 7493·ROCKET BODY·🇷🇺 Russia

Lanciato Oct 28, 1974 da Plesetsk Cosmodrome

Loading…

Prossimi Passaggi (prossime 24 ore)

TLE

AggiornatoSource: Space-Track

Epoca: Sep 14, 2026, 07:07 UTC

1 07493U 74083B   26257.29707755  .00000203  00000-0  10943-3 0  9994
2 07493  81.1572  96.6894 0079963 309.6404  49.7727 14.08041363663462

Traccia SL-3 R/B in tempo reale con AllMySat

Download on the App Store